logo
Rechercher aéroport 
image banner adimage banner adimage banner ad
image banner ad

7CA8 - Eisenhower Medical Center

Situé à Rancho Mirage, United States

ICAO - 7CA8, IATA -

Données fournies par Airmate  

Information générale

Coordonnées: N33°45'51" W116°24'18"
Élévation : 234 feet MSL.
Variation magnétique : 13° East
Voir autres Aéroports à California

Données opérationnelles

Special qualification required
Heure actuelle UTC:
Heure actuelle locale:
Météo à : KPSP - Palm Springs Intl ( 12 km )
METAR: KPSP 281253Z 33008KT 10SM CLR 29/08 A2987 RMK AO2 SLP111 T02940078
TAF: KPSP 281313Z 2813/2912 33008KT P6SM FEW100 FM281900 12009KT P6SM SCT100 BKN150 FM290300 VRB03KT P6SM SCT150
Voir NOTAMs / SUP AIP / TFR affectant cet aéroport [VIEW]
Fréquences de communication: [VIEW]

Pistes:

Coordonnées de l'aéroport

Adresse: Rancho Mirage United States

Vue satellite de 7CA8